Regional Weather Roundup
Issued by NWS

Home | Current Version | Previous Version | Text Only | Print | Product List | Glossary Off
Versions: 1 2 3 4 5 6 7 8 9 10 11 12 13 14 15 16 17 18 19 20 21 22 23 24 25 26 27 28 29 30 31 32 33 34 35 36 37 38 39 40 41 42 43 44 45 46 47 48 49 50

000
ASUS43 KIND 191659
RWRIN

WEATHER ROUNDUP FOR INDIANA
NATIONAL WEATHER SERVICE INDIANAPOLIS IN
100 PM EDT THU APR 19 2018

NOTE: "FAIR" INDICATES FEW OR NO CLOUDS BELOW 12,000 FEET WITH NO
SIGNIFICANT WEATHER AND/OR OBSTRUCTIONS TO VISIBILITY.

* - STATION DOES NOT REPORT WEATHER SUCH AS PRECIPITATION OR FOG.

+ - STATION NOT QUALITY CONTROLLED BY THE NATIONAL WEATHER SERVICE.
    USE DATA WITH CAUTION...ESPECIALLY DEWPOINT AND RELATIVE
    HUMIDITY OBSERVATIONS.

INZ001>003-010>013-019-020-191800-
NORTHWEST INDIANA

CITY           SKY/WX    TMP DP  RH WIND       PRES   REMARKS
GARY /AIRPORT/ MOSUNNY   45  30  57 NW14      30.35R
KNOX *+        FAIR      46  32  57 N18       30.29R
MONTICELLO +   FAIR      48  31  51 N17G23    30.28S

$$

LMZ046-743>745-191800-
SOUTHERN LAKE MICHIGAN

STATION/POSITION TIME  TEMP    WIND        PRES    WAVE
                       AIR SEA DIR/SP/G            HT
                 (UTC) (F)     (DEG/KT/KT) (MB)    (FT)
BURNS HARBOR     1640   37     340/ 12/ 17 1027.8R
MICHIGAN CITY    1630   38     310/ 18/ 20   N/A

$$

INZ004-005-014>016-021>024-191800-
NORTH CENTRAL INDIANA

CITY           SKY/WX    TMP DP  RH WIND       PRES   REMARKS
ELKHART        FAIR      48  28  46 NW14G21   30.25R
GOSHEN         FAIR      49  30  48 NW16G28   30.24R
PERU/GRISSOM   FAIR      48  31  51 N15G23    30.26R
ROCHESTER +    FAIR      50  30  46 NW15G21   30.27R
SOUTH BEND     FAIR      44  30  57 NW18      30.28R
WARSAW +       FAIR      46  32  57 NW14G24   30.25R

$$

INZ006>009-017-018-025>027-191800-
NORTHEAST INDIANA

CITY           SKY/WX    TMP DP  RH WIND       PRES   REMARKS
ANGOLA *+      FAIR      46  28  49 NW16G23   30.20R
FORT WAYNE     FAIR      48  31  51 NW16G22   30.23R
KENDALLVILLE + FAIR      46  22  39 N15       30.22R

$$

INZ028-029-035-036-043>045-051>053-191800-
WEST CENTRAL INDIANA

CITY           SKY/WX    TMP DP  RH WIND       PRES   REMARKS
GREENCASTLE +  PTSUNNY   45  30  57 N10G16    30.30R
LAFAYETTE      FAIR      47  31  53 N16G23    30.30R
TERRE HAUTE    PTSUNNY   47  32  56 N10       30.31R

$$

INZ030>032-037>040-046>048-054>057-064-065-191800-
CENTRAL INDIANA

CITY           SKY/WX    TMP DP  RH WIND       PRES   REMARKS
ANDERSON       PTSUNNY   46  30  53 N12       30.26
COLUMBUS       CLOUDY    43 N/A N/A N12       30.29R
INDIANAPOLIS   FAIR      48  30  49 N15       30.28R
-EAGLE CREEK   PTSUNNY   48  31  51 N15       30.27R
KOKOMO +       FAIR      49  32  52 NW16      30.28R
MT COMFORT *+  PTSUNNY   46  36  66 N16       30.27R
SHELBYVILLE    FAIR      48  31  51 N14G24    30.26R
ZIONSVILLE +   FAIR      44  32  61 N16G23    30.28R

$$

INZ033-034-041-042-049-050-058-059-191800-
EAST CENTRAL INDIANA

CITY           SKY/WX    TMP DP  RH WIND       PRES   REMARKS
MUNCIE         PTSUNNY   48  31  51 NW16      30.25R
RICHMOND +     CLOUDY    41  30  65 N12G18    30.23R

$$

INZ060-061-067>069-081>083-085>088-191800-
SOUTHWEST INDIANA

CITY           SKY/WX    TMP DP  RH WIND       PRES   REMARKS
EVANSVILLE     CLOUDY    44  34  67 NW10      30.34R
HUNTINGBURG +  CLOUDY    43  33  68 N9        30.32R

$$

INZ062-063-066-070>080-084-089>092-191800-
SOUTH CENTRAL AND SOUTHEAST INDIANA

CITY           SKY/WX    TMP DP  RH WIND       PRES   REMARKS
BLOOMINGTON    FAIR      48  32  53 N13       30.29R
FRENCH LICK *+ CLOUDY    41  28  60 N7G16     30.30R
MADISON *+     CLOUDY    41  32  70 NW8G17    30.29R
SEYMOUR +      PTSUNNY   46  30  53 N9        30.29R

$$





USA.gov is the U.S. government's official web portal to all federal, state and local government web resources and services.